Location: B�rgermoos
(47.6500°N, 9.0667°E)
Time: 17:14:41
(UTC+00:00)

Vanguard 1 - Pass Details

Date: 05 August 2021
Orbit: 652 x 3831 km, 34.3° (Epoch: 17 September)

Event Time Altitude Azimuth Distance (km) Brightness Sun altitude
Rises 09:56:04 0° 233° (SW) 2,971 12.5 53.7°
Reaches altitude 10° 09:58:44 10° 214° (SW) 2,149 12.1 54.0°
Maximum altitude 10:02:11 20° 167° (SSE) 1,796 12.4 54.3°
Drops below altitude 10° 10:06:29 10° 122° (ESE) 2,776 13.1 54.8°
Sets 10:10:34 0° 107° (ESE) 4,202 13.7 55.2°
